STARLINK-3925 (52498 NORAD) Tracking and Keplerian Element Data

This shows tracking and keplerian element data for the satellite.

Feedback or suggestion? Click here.




ElementValue
Catalog52498
NameSTARLINK-3925
Epoch Orbit1069
Epoch Day193.25001157
Epoch Year2022
RAAN295.4737
Inclination53.2171
Eccentricity0.0003072
Argument of Perigee16.3094
Mean Anonmoly102.7815
Mean Motion15.73227619
Decay Rate-0.00015636
L11 52498U 22049AZ 22193.25001157 -.00015636 00000+0 -10702-3 0 9998
L22 52498 53.2171 295.4737 0003072 16.3094 102.7815 15.73227619 10694

Live tracking and technical data element details for STARLINK-3925 (NORAD 52498). STARLINK-3925 can be tracked NOW for your location showing map with azimuth and elevation plus other details from your city location.

Track the satellite on the map from your city or location and see movement details for azimuth, elevation, latitude, longitude, range, height, and movement on the map or in text.







IsCatalogInMostPopularTable: catalog: 52498, numindb: 9
Update: records affected: 1



GetName: 52498 STARLINK-3925

Hit Count: updated at: Sun, 14 Aug 2022 00:55:55 GMT